Terminal Aerodrome Forecast
Issued by NWS Hastings, NE

Home | Current Version | Previous Version | Text Only | Print | Product List | Glossary On
Versions: 1 2 3 4 5 6 7 8 9 10 11 12 13 14 15 16 17 18 19 20 21 22 23 24 25 26 27
000
FTUS43 KGID 182337
TAFGRI
TAF
KGRI 182337Z 1900/1924 15010KT P6SM SCT015
     FM190600 17013KT 6SM HZ BR SCT250 WS015/21044KT
     FM191000 18012KT 4SM BR SCT005 WS015/21044KT
     FM191500 20016G26KT P6SM SKC=

USA.gov is the U.S. government's official web portal to all federal, state and local government web resources and services.